owner,sensor,date,latitude,longitude,sea_surface_height_above_sea_level,qcFlag 
COMPS,ioos:station:USF.COMPS:EGK:1,2012-04-01T00:00:00Z,27.6010,-82.7510,0.153,1111122 
COMPS,ioos:station:USF.COMPS:EGK:1,2012-04-01T00:06:00Z,27.6010,-82.7510,0.152,1111122 
COMPS,ioos:station:USF.COMPS:EGK:1,2012-04-01T00:12:00Z,27.6010,-82.7510,0.149,1111122 
COMPS,ioos:station:USF.COMPS:EGK:1,2012-04-01T00:18:00Z,27.6010,-82.7510,0.142,1111122 
COMPS,ioos:station:USF.COMPS:EGK:1,2012-04-01T00:24:00Z,27.6010,-82.7510,0.143,1111122 
COMPS,ioos:station:USF.COMPS:EGK:1,2012-04-01T00:30:00Z,27.6010,-82.7510,0.135,1111122 
COMPS,ioos:station:USF.COMPS:EGK:1,2012-04-01T00:36:00Z,27.6010,-82.7510,0.127,1111122 
COMPS,ioos:station:USF.COMPS:EGK:1,2012-04-01T00:42:00Z,27.6010,-82.7510,0.113,1111122 
COMPS,ioos:station:USF.COMPS:EGK:1,2012-04-01T00:48:00Z,27.6010,-82.7510,0.102,1111122 
COMPS,ioos:station:USF.COMPS:EGK:1,2012-04-01T00:54:00Z,27.6010,-82.7510,0.099,1111122 
COMPS,ioos:station:USF.COMPS:EGK:1,2012-04-01T01:00:00Z,27.6010,-82.7510,0.099,1111122 
COMPS,ioos:station:USF.COMPS:EGK:1,2012-04-01T01:06:00Z,27.6010,-82.7510,0.101,1111122 
COMPS,ioos:station:USF.COMPS:EGK:1,2012-04-01T01:12:00Z,27.6010,-82.7510,0.077,1111122 
COMPS,ioos:station:USF.COMPS:EGK:1,2012-04-01T01:18:00Z,27.6010,-82.7510,0.069,1111122 
COMPS,ioos:station:USF.COMPS:EGK:1,2012-04-01T01:24:00Z,27.6010,-82.7510,0.077,1111122 
COMPS,ioos:station:USF.COMPS:EGK:1,2012-04-01T01:30:00Z,27.6010,-82.7510,0.087,1111122 
COMPS,ioos:station:USF.COMPS:EGK:1,2012-04-01T01:36:00Z,27.6010,-82.7510,0.077,1111122 
COMPS,ioos:station:USF.COMPS:EGK:1,2012-04-01T01:42:00Z,27.6010,-82.7510,0.072,1111122 
COMPS,ioos:station:USF.COMPS:EGK:1,2012-04-01T01:48:00Z,27.6010,-82.7510,0.087,1111122 
COMPS,ioos:station:USF.COMPS:EGK:1,2012-04-01T01:54:00Z,27.6010,-82.7510,0.094,1111122 
COMPS,ioos:station:USF.COMPS:EGK:1,2012-04-01T02:00:00Z,27.6010,-82.7510,0.089,1111122 
COMPS,ioos:station:USF.COMPS:EGK:1,2012-04-01T02:06:00Z,27.6010,-82.7510,0.076,1111122 
COMPS,ioos:station:USF.COMPS:EGK:1,2012-04-01T02:12:00Z,27.6010,-82.7510,0.066,1111122 
COMPS,ioos:station:USF.COMPS:EGK:1,2012-04-01T02:18:00Z,27.6010,-82.7510,0.043,1111122 
COMPS,ioos:station:USF.COMPS:EGK:1,2012-04-01T02:24:00Z,27.6010,-82.7510,0.025,1111122 
COMPS,ioos:station:USF.COMPS:EGK:1,2012-04-01T02:30:00Z,27.6010,-82.7510,0.004,1111122 
COMPS,ioos:station:USF.COMPS:EGK:1,2012-04-01T02:36:00Z,27.6010,-82.7510,-0.004,1111122 
COMPS,ioos:station:USF.COMPS:EGK:1,2012-04-01T02:42:00Z,27.6010,-82.7510,-0.019,1111122 
COMPS,ioos:station:USF.COMPS:EGK:1,2012-04-01T02:48:00Z,27.6010,-82.7510,-0.029,1111122 
COMPS,ioos:station:USF.COMPS:EGK:1,2012-04-01T02:54:00Z,27.6010,-82.7510,-0.05,1111122 
COMPS,ioos:station:USF.COMPS:EGK:1,2012-04-01T03:00:00Z,27.6010,-82.7510,-0.078,1111122 
COMPS,ioos:station:USF.COMPS:EGK:1,2012-04-01T03:06:00Z,27.6010,-82.7510,-0.082,1111122 
COMPS,ioos:station:USF.COMPS:EGK:1,2012-04-01T03:12:00Z,27.6010,-82.7510,-0.098,1111122 
COMPS,ioos:station:USF.COMPS:EGK:1,2012-04-01T03:18:00Z,27.6010,-82.7510,-0.108,1111122 
COMPS,ioos:station:USF.COMPS:EGK:1,2012-04-01T03:24:00Z,27.6010,-82.7510,-0.128,1111122 
COMPS,ioos:station:USF.COMPS:EGK:1,2012-04-01T03:30:00Z,27.6010,-82.7510,-0.149,1111122 
COMPS,ioos:station:USF.COMPS:EGK:1,2012-04-01T03:36:00Z,27.6010,-82.7510,-0.163,1111122 
COMPS,ioos:station:USF.COMPS:EGK:1,2012-04-01T03:42:00Z,27.6010,-82.7510,-0.173,1111122 
COMPS,ioos:station:USF.COMPS:EGK:1,2012-04-01T03:48:00Z,27.6010,-82.7510,-0.177,1111122 
COMPS,ioos:station:USF.COMPS:EGK:1,2012-04-01T03:54:00Z,27.6010,-82.7510,-0.195,1111122 
COMPS,ioos:station:USF.COMPS:EGK:1,2012-04-01T04:00:00Z,27.6010,-82.7510,-0.212,1111122 
COMPS,ioos:station:USF.COMPS:EGK:1,2012-04-01T04:06:00Z,27.6010,-82.7510,-0.23,1111122 
COMPS,ioos:station:USF.COMPS:EGK:1,2012-04-01T04:12:00Z,27.6010,-82.7510,-0.245,1111122 
COMPS,ioos:station:USF.COMPS:EGK:1,2012-04-01T04:18:00Z,27.6010,-82.7510,-0.251,1111122 
COMPS,ioos:station:USF.COMPS:EGK:1,2012-04-01T04:24:00Z,27.6010,-82.7510,-0.255,1111122 
COMPS,ioos:station:USF.COMPS:EGK:1,2012-04-01T04:30:00Z,27.6010,-82.7510,-0.253,1111122 
COMPS,ioos:station:USF.COMPS:EGK:1,2012-04-01T04:36:00Z,27.6010,-82.7510,-0.243,1111122 
COMPS,ioos:station:USF.COMPS:EGK:1,2012-04-01T04:42:00Z,27.6010,-82.7510,-0.243,1111122 
COMPS,ioos:station:USF.COMPS:EGK:1,2012-04-01T04:48:00Z,27.6010,-82.7510,-0.256,1111122 
COMPS,ioos:station:USF.COMPS:EGK:1,2012-04-01T04:54:00Z,27.6010,-82.7510,-0.258,1111122 
COMPS,ioos:station:USF.COMPS:EGK:1,2012-04-01T05:00:00Z,27.6010,-82.7510,-0.262,1111122 
COMPS,ioos:station:USF.COMPS:EGK:1,2012-04-01T05:06:00Z,27.6010,-82.7510,-0.262,1111122 
COMPS,ioos:station:USF.COMPS:EGK:1,2012-04-01T05:12:00Z,27.6010,-82.7510,-0.262,1111122 
COMPS,ioos:station:USF.COMPS:EGK:1,2012-04-01T05:18:00Z,27.6010,-82.7510,-0.251,1111122 
COMPS,ioos:station:USF.COMPS:EGK:1,2012-04-01T05:24:00Z,27.6010,-82.7510,-0.264,1111122 
COMPS,ioos:station:USF.COMPS:EGK:1,2012-04-01T05:30:00Z,27.6010,-82.7510,-0.258,1111122 
COMPS,ioos:station:USF.COMPS:EGK:1,2012-04-01T05:36:00Z,27.6010,-82.7510,-0.254,1111122 
COMPS,ioos:station:USF.COMPS:EGK:1,2012-04-01T05:42:00Z,27.6010,-82.7510,-0.251,1111122 
COMPS,ioos:station:USF.COMPS:EGK:1,2012-04-01T05:48:00Z,27.6010,-82.7510,-0.247,1111122 
COMPS,ioos:station:USF.COMPS:EGK:1,2012-04-01T05:54:00Z,27.6010,-82.7510,-0.248,1111122 
COMPS,ioos:station:USF.COMPS:EGK:1,2012-04-01T06:00:00Z,27.6010,-82.7510,-0.253,1111122 
COMPS,ioos:station:USF.COMPS:EGK:1,2012-04-01T06:06:00Z,27.6010,-82.7510,-0.26,1111122 
COMPS,ioos:station:USF.COMPS:EGK:1,2012-04-01T06:12:00Z,27.6010,-82.7510,-0.258,1111122 
COMPS,ioos:station:USF.COMPS:EGK:1,2012-04-01T06:18:00Z,27.6010,-82.7510,-0.257,1111122 
COMPS,ioos:station:USF.COMPS:EGK:1,2012-04-01T06:24:00Z,27.6010,-82.7510,-0.263,1111122 
COMPS,ioos:station:USF.COMPS:EGK:1,2012-04-01T06:30:00Z,27.6010,-82.7510,-0.267,1111122 
COMPS,ioos:station:USF.COMPS:EGK:1,2012-04-01T06:36:00Z,27.6010,-82.7510,-0.268,1111122 
COMPS,ioos:station:USF.COMPS:EGK:1,2012-04-01T06:42:00Z,27.6010,-82.7510,-0.271,1111122 
COMPS,ioos:station:USF.COMPS:EGK:1,2012-04-01T06:48:00Z,27.6010,-82.7510,-0.277,1111122 
COMPS,ioos:station:USF.COMPS:EGK:1,2012-04-01T06:54:00Z,27.6010,-82.7510,-0.276,1111122 
COMPS,ioos:station:USF.COMPS:EGK:1,2012-04-01T07:00:00Z,27.6010,-82.7510,-0.277,1111122 
COMPS,ioos:station:USF.COMPS:EGK:1,2012-04-01T07:06:00Z,27.6010,-82.7510,-0.263,1111122 
COMPS,ioos:station:USF.COMPS:EGK:1,2012-04-01T07:12:00Z,27.6010,-82.7510,-0.262,1111122 
COMPS,ioos:station:USF.COMPS:EGK:1,2012-04-01T07:18:00Z,27.6010,-82.7510,-0.273,1111122 
COMPS,ioos:station:USF.COMPS:EGK:1,2012-04-01T07:24:00Z,27.6010,-82.7510,-0.268,1111122 
COMPS,ioos:station:USF.COMPS:EGK:1,2012-04-01T07:30:00Z,27.6010,-82.7510,-0.268,1111122 
COMPS,ioos:station:USF.COMPS:EGK:1,2012-04-01T07:36:00Z,27.6010,-82.7510,-0.267,1111122 
COMPS,ioos:station:USF.COMPS:EGK:1,2012-04-01T07:42:00Z,27.6010,-82.7510,-0.257,1111122 
COMPS,ioos:station:USF.COMPS:EGK:1,2012-04-01T07:48:00Z,27.6010,-82.7510,-0.269,1111122 
COMPS,ioos:station:USF.COMPS:EGK:1,2012-04-01T07:54:00Z,27.6010,-82.7510,-0.263,1111122 
COMPS,ioos:station:USF.COMPS:EGK:1,2012-04-01T08:00:00Z,27.6010,-82.7510,-0.262,1111122 
COMPS,ioos:station:USF.COMPS:EGK:1,2012-04-01T08:06:00Z,27.6010,-82.7510,-0.258,1111122 
COMPS,ioos:station:USF.COMPS:EGK:1,2012-04-01T08:12:00Z,27.6010,-82.7510,-0.261,1111122 
COMPS,ioos:station:USF.COMPS:EGK:1,2012-04-01T08:18:00Z,27.6010,-82.7510,-0.258,1111122 
COMPS,ioos:station:USF.COMPS:EGK:1,2012-04-01T08:24:00Z,27.6010,-82.7510,-0.257,1111122 
COMPS,ioos:station:USF.COMPS:EGK:1,2012-04-01T08:30:00Z,27.6010,-82.7510,-0.249,1111122 
COMPS,ioos:station:USF.COMPS:EGK:1,2012-04-01T08:36:00Z,27.6010,-82.7510,-0.232,1111122 
COMPS,ioos:station:USF.COMPS:EGK:1,2012-04-01T08:42:00Z,27.6010,-82.7510,-0.233,1111122 
COMPS,ioos:station:USF.COMPS:EGK:1,2012-04-01T08:48:00Z,27.6010,-82.7510,-0.25,1111122 
COMPS,ioos:station:USF.COMPS:EGK:1,2012-04-01T08:54:00Z,27.6010,-82.7510,-0.25,1111122 
COMPS,ioos:station:USF.COMPS:EGK:1,2012-04-01T09:00:00Z,27.6010,-82.7510,-0.239,1111122 
COMPS,ioos:station:USF.COMPS:EGK:1,2012-04-01T09:06:00Z,27.6010,-82.7510,-0.23,1111122 
COMPS,ioos:station:USF.COMPS:EGK:1,2012-04-01T09:12:00Z,27.6010,-82.7510,-0.219,1111122 
COMPS,ioos:station:USF.COMPS:EGK:1,2012-04-01T09:18:00Z,27.6010,-82.7510,-0.208,1111122 
COMPS,ioos:station:USF.COMPS:EGK:1,2012-04-01T09:24:00Z,27.6010,-82.7510,-0.2,1111122 
COMPS,ioos:station:USF.COMPS:EGK:1,2012-04-01T09:30:00Z,27.6010,-82.7510,-0.203,1111122 
COMPS,ioos:station:USF.COMPS:EGK:1,2012-04-01T09:36:00Z,27.6010,-82.7510,-0.186,1111122 
COMPS,ioos:station:USF.COMPS:EGK:1,2012-04-01T09:42:00Z,27.6010,-82.7510,-0.181,1111122 
COMPS,ioos:station:USF.COMPS:EGK:1,2012-04-01T09:48:00Z,27.6010,-82.7510,-0.162,1111122 
COMPS,ioos:station:USF.COMPS:EGK:1,2012-04-01T09:54:00Z,27.6010,-82.7510,-0.157,1111122 
COMPS,ioos:station:USF.COMPS:EGK:1,2012-04-01T10:00:00Z,27.6010,-82.7510,-0.157,1111122 
COMPS,ioos:station:USF.COMPS:EGK:1,2012-04-01T10:06:00Z,27.6010,-82.7510,-0.161,1111122 
COMPS,ioos:station:USF.COMPS:EGK:1,2012-04-01T10:12:00Z,27.6010,-82.7510,-0.168,1111122 
COMPS,ioos:station:USF.COMPS:EGK:1,2012-04-01T10:18:00Z,27.6010,-82.7510,-0.159,1111122 
COMPS,ioos:station:USF.COMPS:EGK:1,2012-04-01T10:24:00Z,27.6010,-82.7510,-0.149,1111122 
COMPS,ioos:station:USF.COMPS:EGK:1,2012-04-01T10:30:00Z,27.6010,-82.7510,-0.139,1111122 
COMPS,ioos:station:USF.COMPS:EGK:1,2012-04-01T10:36:00Z,27.6010,-82.7510,-0.132,1111122 
COMPS,ioos:station:USF.COMPS:EGK:1,2012-04-01T10:42:00Z,27.6010,-82.7510,-0.127,1111122 
COMPS,ioos:station:USF.COMPS:EGK:1,2012-04-01T10:48:00Z,27.6010,-82.7510,-0.126,1111122 
COMPS,ioos:station:USF.COMPS:EGK:1,2012-04-01T10:54:00Z,27.6010,-82.7510,-0.119,1111122 
COMPS,ioos:station:USF.COMPS:EGK:1,2012-04-01T11:00:00Z,27.6010,-82.7510,-0.119,1111122 
COMPS,ioos:station:USF.COMPS:EGK:1,2012-04-01T11:06:00Z,27.6010,-82.7510,-0.116,1111122 
COMPS,ioos:station:USF.COMPS:EGK:1,2012-04-01T11:12:00Z,27.6010,-82.7510,-0.116,1111122 
COMPS,ioos:station:USF.COMPS:EGK:1,2012-04-01T11:18:00Z,27.6010,-82.7510,-0.123,1111122 
COMPS,ioos:station:USF.COMPS:EGK:1,2012-04-01T11:24:00Z,27.6010,-82.7510,-0.11,1111122 
COMPS,ioos:station:USF.COMPS:EGK:1,2012-04-01T11:30:00Z,27.6010,-82.7510,-0.102,1111122 
COMPS,ioos:station:USF.COMPS:EGK:1,2012-04-01T11:36:00Z,27.6010,-82.7510,-0.083,1111122 
COMPS,ioos:station:USF.COMPS:EGK:1,2012-04-01T11:42:00Z,27.6010,-82.7510,-0.082,1111122 
COMPS,ioos:station:USF.COMPS:EGK:1,2012-04-01T11:48:00Z,27.6010,-82.7510,-0.086,1111122 
COMPS,ioos:station:USF.COMPS:EGK:1,2012-04-01T11:54:00Z,27.6010,-82.7510,-0.077,1111122 
COMPS,ioos:station:USF.COMPS:EGK:1,2012-04-01T12:00:00Z,27.6010,-82.7510,-0.066,1111122 
COMPS,ioos:station:USF.COMPS:EGK:1,2012-04-01T12:06:00Z,27.6010,-82.7510,-0.053,1111122 
COMPS,ioos:station:USF.COMPS:EGK:1,2012-04-01T12:12:00Z,27.6010,-82.7510,-0.046,1111122 
COMPS,ioos:station:USF.COMPS:EGK:1,2012-04-01T12:18:00Z,27.6010,-82.7510,-0.041,1111122 
COMPS,ioos:station:USF.COMPS:EGK:1,2012-04-01T12:24:00Z,27.6010,-82.7510,-0.04,1111122 
COMPS,ioos:station:USF.COMPS:EGK:1,2012-04-01T12:30:00Z,27.6010,-82.7510,-0.026,1111122 
COMPS,ioos:station:USF.COMPS:EGK:1,2012-04-01T12:36:00Z,27.6010,-82.7510,-0.009,1111122 
COMPS,ioos:station:USF.COMPS:EGK:1,2012-04-01T12:42:00Z,27.6010,-82.7510,-0.002,1111122 
COMPS,ioos:station:USF.COMPS:EGK:1,2012-04-01T12:48:00Z,27.6010,-82.7510,-0.003,1111122 
COMPS,ioos:station:USF.COMPS:EGK:1,2012-04-01T12:54:00Z,27.6010,-82.7510,0.0,1114422 
COMPS,ioos:station:USF.COMPS:EGK:1,2012-04-01T13:00:00Z,27.6010,-82.7510,0.012,1111122 
COMPS,ioos:station:USF.COMPS:EGK:1,2012-04-01T13:06:00Z,27.6010,-82.7510,0.023,1111122 
COMPS,ioos:station:USF.COMPS:EGK:1,2012-04-01T13:12:00Z,27.6010,-82.7510,0.02,1111122 
COMPS,ioos:station:USF.COMPS:EGK:1,2012-04-01T13:18:00Z,27.6010,-82.7510,0.026,1111122 
COMPS,ioos:station:USF.COMPS:EGK:1,2012-04-01T13:24:00Z,27.6010,-82.7510,0.024,1111122 
COMPS,ioos:station:USF.COMPS:EGK:1,2012-04-01T13:30:00Z,27.6010,-82.7510,0.036,1111122 
COMPS,ioos:station:USF.COMPS:EGK:1,2012-04-01T13:36:00Z,27.6010,-82.7510,0.039,1111122 
COMPS,ioos:station:USF.COMPS:EGK:1,2012-04-01T13:42:00Z,27.6010,-82.7510,0.039,1111122 
COMPS,ioos:station:USF.COMPS:EGK:1,2012-04-01T13:48:00Z,27.6010,-82.7510,0.034,1111122 
COMPS,ioos:station:USF.COMPS:EGK:1,2012-04-01T13:54:00Z,27.6010,-82.7510,0.028,1111122 
COMPS,ioos:station:USF.COMPS:EGK:1,2012-04-01T14:00:00Z,27.6010,-82.7510,0.021,1111122 
COMPS,ioos:station:USF.COMPS:EGK:1,2012-04-01T14:06:00Z,27.6010,-82.7510,0.016,1111122 
COMPS,ioos:station:USF.COMPS:EGK:1,2012-04-01T14:12:00Z,27.6010,-82.7510,0.017,1111122 
COMPS,ioos:station:USF.COMPS:EGK:1,2012-04-01T14:18:00Z,27.6010,-82.7510,0.022,1111122 
COMPS,ioos:station:USF.COMPS:EGK:1,2012-04-01T14:24:00Z,27.6010,-82.7510,0.021,1111122 
COMPS,ioos:station:USF.COMPS:EGK:1,2012-04-01T14:30:00Z,27.6010,-82.7510,0.015,1111122 
COMPS,ioos:station:USF.COMPS:EGK:1,2012-04-01T14:36:00Z,27.6010,-82.7510,0.021,1111122 
COMPS,ioos:station:USF.COMPS:EGK:1,2012-04-01T14:42:00Z,27.6010,-82.7510,0.019,1111122 
COMPS,ioos:station:USF.COMPS:EGK:1,2012-04-01T14:48:00Z,27.6010,-82.7510,0.014,1111122 
COMPS,ioos:station:USF.COMPS:EGK:1,2012-04-01T14:54:00Z,27.6010,-82.7510,0.013,1111122 
COMPS,ioos:station:USF.COMPS:EGK:1,2012-04-02T12:00:00Z,27.6010,-82.7510,-0.049,1111122 
COMPS,ioos:station:USF.COMPS:EGK:1,2012-04-02T12:06:00Z,27.6010,-82.7510,-0.043,1111122 
COMPS,ioos:station:USF.COMPS:EGK:1,2012-04-02T12:12:00Z,27.6010,-82.7510,-0.04,1111122 
COMPS,ioos:station:USF.COMPS:EGK:1,2012-04-02T12:18:00Z,27.6010,-82.7510,-0.041,1111122 
COMPS,ioos:station:USF.COMPS:EGK:1,2012-04-02T12:24:00Z,27.6010,-82.7510,-0.034,1111122 
COMPS,ioos:station:USF.COMPS:EGK:1,2012-04-02T12:30:00Z,27.6010,-82.7510,-0.026,1111122 
COMPS,ioos:station:USF.COMPS:EGK:1,2012-04-02T12:36:00Z,27.6010,-82.7510,-0.022,1111122 
COMPS,ioos:station:USF.COMPS:EGK:1,2012-04-02T12:42:00Z,27.6010,-82.7510,-0.024,1111122 
COMPS,ioos:station:USF.COMPS:EGK:1,2012-04-02T12:48:00Z,27.6010,-82.7510,-0.024,1111122 
COMPS,ioos:station:USF.COMPS:EGK:1,2012-04-02T12:54:00Z,27.6010,-82.7510,-0.015,1111122 
COMPS,ioos:station:USF.COMPS:EGK:1,2012-04-02T13:00:00Z,27.6010,-82.7510,-0.007,1111122 
COMPS,ioos:station:USF.COMPS:EGK:1,2012-04-02T13:06:00Z,27.6010,-82.7510,0.012,1111122 
COMPS,ioos:station:USF.COMPS:EGK:1,2012-04-02T13:12:00Z,27.6010,-82.7510,0.023,1111122 
COMPS,ioos:station:USF.COMPS:EGK:1,2012-04-02T13:18:00Z,27.6010,-82.7510,0.025,1111122 
COMPS,ioos:station:USF.COMPS:EGK:1,2012-04-02T13:24:00Z,27.6010,-82.7510,0.031,1111122 
COMPS,ioos:station:USF.COMPS:EGK:1,2012-04-02T13:30:00Z,27.6010,-82.7510,0.03,1111122 
COMPS,ioos:station:USF.COMPS:EGK:1,2012-04-02T13:36:00Z,27.6010,-82.7510,0.037,1111122 
COMPS,ioos:station:USF.COMPS:EGK:1,2012-04-02T13:42:00Z,27.6010,-82.7510,0.041,1111122 
COMPS,ioos:station:USF.COMPS:EGK:1,2012-04-02T13:48:00Z,27.6010,-82.7510,0.052,1111122 
COMPS,ioos:station:USF.COMPS:EGK:1,2012-04-02T13:54:00Z,27.6010,-82.7510,0.059,1111122 
COMPS,ioos:station:USF.COMPS:EGK:1,2012-04-02T14:00:00Z,27.6010,-82.7510,0.056,1111122 
COMPS,ioos:station:USF.COMPS:EGK:1,2012-04-02T14:06:00Z,27.6010,-82.7510,0.053,1111122 
COMPS,ioos:station:USF.COMPS:EGK:1,2012-04-02T14:12:00Z,27.6010,-82.7510,0.056,1111122 
COMPS,ioos:station:USF.COMPS:EGK:1,2012-04-02T14:18:00Z,27.6010,-82.7510,0.062,1111122 
COMPS,ioos:station:USF.COMPS:EGK:1,2012-04-02T14:24:00Z,27.6010,-82.7510,0.065,1111122 
COMPS,ioos:station:USF.COMPS:EGK:1,2012-04-02T14:30:00Z,27.6010,-82.7510,0.068,1111122 
COMPS,ioos:station:USF.COMPS:EGK:1,2012-04-02T14:36:00Z,27.6010,-82.7510,0.074,1111122 
COMPS,ioos:station:USF.COMPS:EGK:1,2012-04-02T14:42:00Z,27.6010,-82.7510,0.079,1111122 
COMPS,ioos:station:USF.COMPS:EGK:1,2012-04-02T14:48:00Z,27.6010,-82.7510,0.079,1111122 
COMPS,ioos:station:USF.COMPS:EGK:1,2012-04-02T14:54:00Z,27.6010,-82.7510,0.072,1111122 
COMPS,ioos:station:USF.COMPS:EGK:1,2012-04-02T15:00:00Z,27.6010,-82.7510,0.071,1111122 
COMPS,ioos:station:USF.COMPS:EGK:1,2012-04-02T15:06:00Z,27.6010,-82.7510,0.07,1111122 
COMPS,ioos:station:USF.COMPS:EGK:1,2012-04-02T15:12:00Z,27.6010,-82.7510,0.08,1111122 
COMPS,ioos:station:USF.COMPS:EGK:1,2012-04-02T15:18:00Z,27.6010,-82.7510,0.078,1111122 
COMPS,ioos:station:USF.COMPS:EGK:1,2012-04-02T15:24:00Z,27.6010,-82.7510,0.076,1111122 
COMPS,ioos:station:USF.COMPS:EGK:1,2012-04-02T15:30:00Z,27.6010,-82.7510,0.069,1111122 
COMPS,ioos:station:USF.COMPS:EGK:1,2012-04-02T15:36:00Z,27.6010,-82.7510,0.069,1111122 
COMPS,ioos:station:USF.COMPS:EGK:1,2012-04-02T15:42:00Z,27.6010,-82.7510,0.059,1111122 
COMPS,ioos:station:USF.COMPS:EGK:1,2012-04-02T15:48:00Z,27.6010,-82.7510,0.05,1111122 
COMPS,ioos:station:USF.COMPS:EGK:1,2012-04-02T15:54:00Z,27.6010,-82.7510,0.048,1111122 
COMPS,ioos:station:USF.COMPS:EGK:1,2012-04-02T16:00:00Z,27.6010,-82.7510,0.039,1111122 
COMPS,ioos:station:USF.COMPS:EGK:1,2012-04-02T16:06:00Z,27.6010,-82.7510,0.034,1111122 
COMPS,ioos:station:USF.COMPS:EGK:1,2012-04-02T16:12:00Z,27.6010,-82.7510,0.043,1111122 
COMPS,ioos:station:USF.COMPS:EGK:1,2012-04-02T16:18:00Z,27.6010,-82.7510,0.038,1111122 
COMPS,ioos:station:USF.COMPS:EGK:1,2012-04-02T16:24:00Z,27.6010,-82.7510,0.031,1111122 
COMPS,ioos:station:USF.COMPS:EGK:1,2012-04-02T16:30:00Z,27.6010,-82.7510,0.021,1111122 
COMPS,ioos:station:USF.COMPS:EGK:1,2012-04-02T16:36:00Z,27.6010,-82.7510,0.012,1111122 
COMPS,ioos:station:USF.COMPS:EGK:1,2012-04-02T16:42:00Z,27.6010,-82.7510,0.014,1111122 
COMPS,ioos:station:USF.COMPS:EGK:1,2012-04-02T16:48:00Z,27.6010,-82.7510,0.027,1111122 
COMPS,ioos:station:USF.COMPS:EGK:1,2012-04-02T16:54:00Z,27.6010,-82.7510,0.029,1111122 
COMPS,ioos:station:USF.COMPS:EGK:1,2012-04-02T17:00:00Z,27.6010,-82.7510,0.018,1111122 
COMPS,ioos:station:USF.COMPS:EGK:1,2012-04-02T17:06:00Z,27.6010,-82.7510,0.01,1111122 
COMPS,ioos:station:USF.COMPS:EGK:1,2012-04-02T17:12:00Z,27.6010,-82.7510,-0.005,1111122 
COMPS,ioos:station:USF.COMPS:EGK:1,2012-04-02T17:18:00Z,27.6010,-82.7510,-0.009,1111122 
COMPS,ioos:station:USF.COMPS:EGK:1,2012-04-02T17:24:00Z,27.6010,-82.7510,-0.004,1111122 
COMPS,ioos:station:USF.COMPS:EGK:1,2012-04-02T17:30:00Z,27.6010,-82.7510,-0.006,1111122 
COMPS,ioos:station:USF.COMPS:EGK:1,2012-04-02T17:36:00Z,27.6010,-82.7510,-0.014,1111122 
COMPS,ioos:station:USF.COMPS:EGK:1,2012-04-02T17:42:00Z,27.6010,-82.7510,-0.018,1111122 
COMPS,ioos:station:USF.COMPS:EGK:1,2012-04-02T17:48:00Z,27.6010,-82.7510,-0.029,1111122 
COMPS,ioos:station:USF.COMPS:EGK:1,2012-04-02T17:54:00Z,27.6010,-82.7510,-0.044,1111122 
COMPS,ioos:station:USF.COMPS:EGK:1,2012-04-02T18:00:00Z,27.6010,-82.7510,-0.051,1111122 
COMPS,ioos:station:USF.COMPS:EGK:1,2012-04-02T18:06:00Z,27.6010,-82.7510,-0.049,1111122 
COMPS,ioos:station:USF.COMPS:EGK:1,2012-04-02T18:12:00Z,27.6010,-82.7510,-0.046,1111122 
COMPS,ioos:station:USF.COMPS:EGK:1,2012-04-02T18:18:00Z,27.6010,-82.7510,-0.054,1111122 
COMPS,ioos:station:USF.COMPS:EGK:1,2012-04-02T18:24:00Z,27.6010,-82.7510,-0.064,1111122 
COMPS,ioos:station:USF.COMPS:EGK:1,2012-04-02T18:30:00Z,27.6010,-82.7510,-0.068,1111122 
COMPS,ioos:station:USF.COMPS:EGK:1,2012-04-02T18:36:00Z,27.6010,-82.7510,-0.068,1111122 
COMPS,ioos:station:USF.COMPS:EGK:1,2012-04-02T18:42:00Z,27.6010,-82.7510,-0.065,1111122 
COMPS,ioos:station:USF.COMPS:EGK:1,2012-04-02T18:48:00Z,27.6010,-82.7510,-0.062,1111122 
COMPS,ioos:station:USF.COMPS:EGK:1,2012-04-02T18:54:00Z,27.6010,-82.7510,-0.061,1111122 
COMPS,ioos:station:USF.COMPS:EGK:1,2012-04-02T19:00:00Z,27.6010,-82.7510,-0.07,1111122 
COMPS,ioos:station:USF.COMPS:EGK:1,2012-04-02T19:06:00Z,27.6010,-82.7510,-0.076,1111122 
COMPS,ioos:station:USF.COMPS:EGK:1,2012-04-02T19:12:00Z,27.6010,-82.7510,-0.075,1111122 
COMPS,ioos:station:USF.COMPS:EGK:1,2012-04-02T19:18:00Z,27.6010,-82.7510,-0.083,1111122 
COMPS,ioos:station:USF.COMPS:EGK:1,2012-04-02T19:24:00Z,27.6010,-82.7510,-0.083,1111122 
COMPS,ioos:station:USF.COMPS:EGK:1,2012-04-02T19:30:00Z,27.6010,-82.7510,-0.081,1111122 
COMPS,ioos:station:USF.COMPS:EGK:1,2012-04-02T19:36:00Z,27.6010,-82.7510,-0.094,1111122 
COMPS,ioos:station:USF.COMPS:EGK:1,2012-04-02T19:42:00Z,27.6010,-82.7510,-0.094,1111122 
COMPS,ioos:station:USF.COMPS:EGK:1,2012-04-02T19:48:00Z,27.6010,-82.7510,-0.095,1111122 
COMPS,ioos:station:USF.COMPS:EGK:1,2012-04-02T19:54:00Z,27.6010,-82.7510,-0.095,1111122 
COMPS,ioos:station:USF.COMPS:EGK:1,2012-04-02T20:00:00Z,27.6010,-82.7510,-0.092,1111122 
COMPS,ioos:station:USF.COMPS:EGK:1,2012-04-02T20:06:00Z,27.6010,-82.7510,-0.084,1111122 
COMPS,ioos:station:USF.COMPS:EGK:1,2012-04-02T20:12:00Z,27.6010,-82.7510,-0.084,1111122 
COMPS,ioos:station:USF.COMPS:EGK:1,2012-04-02T20:18:00Z,27.6010,-82.7510,-0.077,1111122 
COMPS,ioos:station:USF.COMPS:EGK:1,2012-04-02T20:24:00Z,27.6010,-82.7510,-0.077,1111122 
COMPS,ioos:station:USF.COMPS:EGK:1,2012-04-02T20:30:00Z,27.6010,-82.7510,-0.082,1111122 
COMPS,ioos:station:USF.COMPS:EGK:1,2012-04-02T20:36:00Z,27.6010,-82.7510,-0.081,1111122 
COMPS,ioos:station:USF.COMPS:EGK:1,2012-04-02T20:42:00Z,27.6010,-82.7510,-0.069,1111122 
COMPS,ioos:station:USF.COMPS:EGK:1,2012-04-02T20:48:00Z,27.6010,-82.7510,-0.066,1111122 
COMPS,ioos:station:USF.COMPS:EGK:1,2012-04-02T20:54:00Z,27.6010,-82.7510,-0.065,1111122 
COMPS,ioos:station:USF.COMPS:EGK:1,2012-04-02T21:00:00Z,27.6010,-82.7510,-0.072,1111122 
COMPS,ioos:station:USF.COMPS:EGK:1,2012-04-02T21:06:00Z,27.6010,-82.7510,-0.057,1111122 
COMPS,ioos:station:USF.COMPS:EGK:1,2012-04-02T21:12:00Z,27.6010,-82.7510,-0.06,1111122 
COMPS,ioos:station:USF.COMPS:EGK:1,2012-04-02T21:18:00Z,27.6010,-82.7510,-0.058,1111122 
COMPS,ioos:station:USF.COMPS:EGK:1,2012-04-02T21:24:00Z,27.6010,-82.7510,-0.044,1111122 
COMPS,ioos:station:USF.COMPS:EGK:1,2012-04-02T21:30:00Z,27.6010,-82.7510,-0.038,1111122 
COMPS,ioos:station:USF.COMPS:EGK:1,2012-04-02T21:36:00Z,27.6010,-82.7510,-0.032,1111122 
COMPS,ioos:station:USF.COMPS:EGK:1,2012-04-02T21:42:00Z,27.6010,-82.7510,-0.016,1111122 
COMPS,ioos:station:USF.COMPS:EGK:1,2012-04-02T21:48:00Z,27.6010,-82.7510,-0.012,1111122 
COMPS,ioos:station:USF.COMPS:EGK:1,2012-04-02T21:54:00Z,27.6010,-82.7510,0.001,1111122 
COMPS,ioos:station:USF.COMPS:EGK:1,2012-04-02T22:00:00Z,27.6010,-82.7510,0.012,1111122 
COMPS,ioos:station:USF.COMPS:EGK:1,2012-04-02T22:06:00Z,27.6010,-82.7510,0.018,1111122 
COMPS,ioos:station:USF.COMPS:EGK:1,2012-04-02T22:12:00Z,27.6010,-82.7510,0.023,1111122 
COMPS,ioos:station:USF.COMPS:EGK:1,2012-04-02T22:18:00Z,27.6010,-82.7510,0.034,1111122 
COMPS,ioos:station:USF.COMPS:EGK:1,2012-04-02T22:24:00Z,27.6010,-82.7510,0.038,1111122 
COMPS,ioos:station:USF.COMPS:EGK:1,2012-04-02T22:30:00Z,27.6010,-82.7510,0.05,1111122 
COMPS,ioos:station:USF.COMPS:EGK:1,2012-04-02T22:36:00Z,27.6010,-82.7510,0.057,1111122 
COMPS,ioos:station:USF.COMPS:EGK:1,2012-04-02T22:42:00Z,27.6010,-82.7510,0.07,1111122 
COMPS,ioos:station:USF.COMPS:EGK:1,2012-04-02T22:48:00Z,27.6010,-82.7510,0.071,1111122 
COMPS,ioos:station:USF.COMPS:EGK:1,2012-04-02T22:54:00Z,27.6010,-82.7510,0.085,1111122 
COMPS,ioos:station:USF.COMPS:EGK:1,2012-04-02T23:00:00Z,27.6010,-82.7510,0.102,1111122 
COMPS,ioos:station:USF.COMPS:EGK:1,2012-04-02T23:06:00Z,27.6010,-82.7510,0.111,1111122 
COMPS,ioos:station:USF.COMPS:EGK:1,2012-04-02T23:12:00Z,27.6010,-82.7510,0.109,1111122 
COMPS,ioos:station:USF.COMPS:EGK:1,2012-04-02T23:18:00Z,27.6010,-82.7510,0.113,1111122 
COMPS,ioos:station:USF.COMPS:EGK:1,2012-04-02T23:24:00Z,27.6010,-82.7510,0.121,1111122 
COMPS,ioos:station:USF.COMPS:EGK:1,2012-04-02T23:30:00Z,27.6010,-82.7510,0.13,1111122 
COMPS,ioos:station:USF.COMPS:EGK:1,2012-04-02T23:36:00Z,27.6010,-82.7510,0.14,1111122 
COMPS,ioos:station:USF.COMPS:EGK:1,2012-04-02T23:42:00Z,27.6010,-82.7510,0.147,1111122 
COMPS,ioos:station:USF.COMPS:EGK:1,2012-04-02T23:48:00Z,27.6010,-82.7510,0.139,1111122 
COMPS,ioos:station:USF.COMPS:EGK:1,2012-04-02T23:54:00Z,27.6010,-82.7510,0.133,1111122 